Tracking 28790 objects as of 19-Apr-2024
HD Live streaming from Space Station
objects crossing your sky now

DMSP 5D-2 F11 DEB

Track DMSP 5D-2 F11 DEB now!
10-day predictions


NORAD ID: 28342
Int'l Code: 1991-082BF
Perigee: 757.3 km
Apogee: 867.6 km
Inclination: 99.0 °
Period: 101.0 minutes
Semi major axis: 7183 km
RCS: 0.0067 m2 (small)
Launch date: November 28, 1991
Source: United States (US)
Launch site: AIR FORCE WESTERN TEST RANGE (AFWTR)

Note: This is SATELLITE DEBRIS
Your satellite tracking list
Your tracking list is empty




NASA's NSSDC Master Catalog

Two Line Element Set (TLE):
1 28342U 91082BF  24109.85792062  .00010205  00000-0  41638-2 0  9996
2 28342  99.0016 140.3436 0076814 249.5842 109.7076 14.25945658 25834
Source of the keplerian elements: AFSPC